Regional Weather Roundup
Issued by NWS Wakefield, VA

Home | Current Version | Previous Version | Text Only | Print | Product List | Glossary Off
Versions: 1 2 3 4 5 6 7 8 9 10 11 12 13 14 15 16 17 18 19 20 21 22 23 24 25 26 27 28 29 30 31 32 33 34 35 36 37 38 39 40 41 42 43 44 45 46 47 48 49 50

578
ASUS41 KAKQ 110515
RWRAKQ

REGIONAL WEATHER ROUNDUP
NATIONAL WEATHER SERVICE WAKEFIELD VA
1200 AM EST SUN DEC 11 2016

Note: "fair" indicates few or no clouds below 12,000 feet with no
significant weather and/or obstructions to visibility. * = Denotes
station may not report precipitation (e.g., rain,snow,etc.),
thunder or fog.

VAZ042-051-052>054-056-110600-
NORTHERN VIRGINIA

CITY           SKY/WX    TMP DP  RH WIND       PRES   REMARKS
WASH NATIONAL  MOCLDY    29  14  53 CALM      30.54F
DULLES         MOCLDY    22  12  65 CALM      30.51F
FORT BELVOIR   NOT AVBL
QUANTICO       PTCLDY    27  20  75 W3        30.56F
FREDERICKSBRG* PTCLDY    26  19  75 CALM      30.54S
STAFFORD*      MOCLDY    22  17  80 CALM      30.57F
WARRENTON      PTCLDY    23  15  74 CALM      30.51S
CULPEPER*      CLOUDY    22  19  87 CALM      30.53S
MANASSAS*      NOT AVBL
LEESBURG*      PTCLDY    28  18  64 NW6       30.52S
WINCHESTER     PTCLDY    21  14  73 CALM      30.49S
FRONT ROYAL*   FAIR      23  16  74 CALM      30.48F
LURAY*         FAIR      25  19  80 CALM      30.46F
$$

VAZ048-049-060>072-079>083-110600-
CENTRAL AND SOUTH CENTRAL VIRGINIA

CITY           SKY/WX    TMP DP  RH WIND       PRES   REMARKS
RICHMOND       PTCLDY    26  15  63 NE5       30.53F
CHESTERFIELD*  FAIR      28   3  34 CALM      30.54S
PETERSBURG*    CLEAR     21  18  89 CALM      30.54F
HANOVER        PTCLDY    25  17  72 CALM      30.55F
TAPPAHANNOCK*  PTCLDY    26  16  66 CALM      30.54F
QUINTON*       FAIR      28  16  60 CALM      30.53F
CHARLOTTSVILLE PTCLDY    27  12  53 CALM      30.50S
GORDONSVILLE*  FAIR      23  19  82 CALM      30.51S
ORANGE*          N/A     27  19  74 CALM      30.53R
LOUISA*        PTCLDY    28  18  64 E3        30.50F
BUMPASS*       FAIR      26  15  62 CALM      30.53S
FARMVILLE*     MOCLDY    27  19  71 N6        30.51R
CREWE*         FAIR      22  20  91 CALM      30.51F
FORT PICKETT*  FAIR      23  14  69 CALM      30.51F
CHASE CITY*    FAIR      23  15  71 CALM      30.50F
CLARKSVILLE*   FAIR      23  23 100 CALM      30.50F
SOUTH HILL*    CLEAR     21  19  89 CALM      30.57F
LAWRENCEVILLE* FAIR      25  17  71 CALM      30.51F
EMPORIA*       CLEAR     19  16  86 CALM      30.54F
$$

VAZ088>098-110600-
SOUTHEAST VIRGINIA

CITY           SKY/WX    TMP DP  RH WIND       PRES   REMARKS
NORFOLK        CLEAR     33  22  63 CALM      30.52F
VIRGINIA BEACH CLEAR     26  19  74 CALM      30.52F
NORFOLK NAVAL  CLEAR     34  18  52 N7        30.54F
WEST POINT*    PTCLDY    28  17  65 CALM      30.55F
SALUDA*        FAIR      32  18  57 N3        30.55R
NEWPORT NEWS   CLEAR     23  19  85 N5        30.54S
LANGLEY AFB    CLEAR     25  20  81 NW5       30.52F
FORT EUSTIS    CLEAR     28  16  62 VRB3      30.51F
WILLIAMSBURG*  CLEAR     28  23  80 CALM      30.55S
HR EXEC AP*    FAIR      19  16  86 CALM      30.53S
FRANKLIN*      CLEAR     23  20  89 CALM      30.55S
US460-WAKEFLD  CLEAR     22  19  89 CALM      30.54S
$$

VAZ020-022-025-037-045-110600-
WEST CENTRAL AND SOUTHWEST VIRGINIA

CITY           SKY/WX    TMP DP  RH WIND       PRES   REMARKS
STAUNTON*      CLOUDY    22  16  78 CALM      30.46F
WAYNESBORO*    MOCLDY    23  13  65 CALM      30.44F
HOT SPRINGS VA CLOUDY    21   7  53 S5        30.27F
LYNCHBURG      CLOUDY    26  18  71 CALM      30.48F
DANVILLE       CLEAR     21  18  88 CALM      30.50F
SOUTH BOSTON*  FAIR      22  17  79 CALM      30.51F
MARTINSVILLE   CLOUDY    21  17  83 CALM      30.50S
ROANOKE        CLOUDY    29  15  56 CALM      30.47F
BLACKSBURG     PTCLDY    26  14  59 CALM      30.43F
DUBLIN*        MOCLDY    25  17  70 CALM      30.42F
MARION*        CLOUDY    23  16  75 CALM      30.40F
HILLSVILLE*    CLOUDY    27  10  48 CALM      30.37S
RICHLANDS*     MOCLDY    27  13  56 CALM      30.33F
WISE*          PTCLDY    30  10  43 S3        30.33F
ABINGDON*      CLOUDY    28  17  62 E9        30.37F
$$

MDZ021>025-VAZ099-100-110600-
SOUTHERN MARYLAND AND THE DELMARVA PENINSULA

CITY           SKY/WX    TMP DP  RH WIND       PRES   REMARKS
PATUXENT RIVER CLEAR     30  14  51 N10       30.53F WCI  21
BAY BRIDGE APT CLEAR     30  16  55 MISG      30.52F
LEONARDTOWN    CLEAR     27  16  63 CALM      30.53F
DOVER          CLEAR     26  17  69 S3        30.50F
GEORGETOWN     CLEAR     25  16  68 CALM      30.53S
EASTON         CLEAR     29  15  54 CALM      30.55F
CAMBRIDGE      CLEAR     27  18  69 CALM      30.53F
SALISBURY      CLEAR     25  18  74 CALM      30.53S
OCEAN CITY     CLEAR     24  15  68 NW5       30.53F
WALLOPS ISLAND CLEAR     25  17  72 W3        30.54S
ACCOMACK*      CLEAR     29  20  68 N7        30.54S
$$

NCZ012>017-030>032-110600-
NORTH CENTRAL AND EASTERN NORTH CAROLINA

CITY           SKY/WX    TMP DP  RH WIND       PRES   REMARKS
ROANOKE RAPIDS FAIR      25  23  93 CALM      30.53F
RALEIGH        CLEAR     27  17  66 CALM      30.52S
ELIZABETH CITY CLEAR     26  23  88 CALM      30.54F
AHOSKIE*       CLEAR     24  20  85 CALM      30.55S
EDENTON*       NOT AVBL
CURRITUCK*     CLEAR     28  28  98 CALM      30.54S
KILL DEVIL HLS CLEAR     35  22  60 CALM      30.52S
MANTEO         CLEAR     34  18  52 N3        30.53F
CAPE HATTERAS  CLEAR     38  22  52 VRB5      30.51F
TARBORO*       NOT AVBL
GOLDSBORO      CLEAR     26  21  80 CALM      30.52F
WASHINGTON     CLEAR     25  20  81 CALM      30.55R
GREENVILLE     CLEAR     27  27 100 CALM      30.54R
NEW BERN       CLEAR     25  24  96 CALM      30.54F
WILMINGTON     CLEAR     27  24  89 CALM      30.53F
$$

VAZ048-110600-
ELSEWHERE

CITY           SKY/WX    TMP DP  RH WIND       PRES   REMARKS
HARRISBURG PA  PTCLDY    23  15  71 NW6       30.49S
BALTIMORE      MOCLDY    25  14  63 CALM      30.51F
ANNAPOLIS      CLEAR     30  13  49 W6        30.51F
ANDREWS AFB    PTCLDY    23  15  71 SW3       30.50F
PHILADELPHIA   PTCLDY    28  15  58 W6        30.51S
HENDERSON NC   CLEAR     24  14  65 CALM      30.50F
GREENSBORO     PTCLDY    26  18  71 S6        30.47F
ROCKY MOUNT    CLEAR     24  21  88 CALM      30.54S
$$

VAZ100-110600-
MARINE

STATION/POSITION TIME  TEMP    WIND        PRES    WAVE   SWELL
                       AIR SEA DIR/SP/G            HT/PER HT/PER
                 (UTC) (F)     (DEG/KT/KT) (MB)    (FT/S) (FT/S)
BRANDYWINE LGT   0436   33     330/  9/ 14   N/A
CAPE MAY NJ      0448   33 39  320/  7/ 13 1032.9R
LEWES DE         0448      44  270/  6/  7 1033.5S
OCEAN-CITY-INLET 0442   30 44  340/  6/  7 1034.2F
WACHAPREAGUE VA  0442   29 40  350/  3/  5 1034.2F
THOMAS POINT MD  0500   30 45  320/  8/  9   N/A
GOOSES REEF MD   0500   33 47  340/  8/ 12 1034.1    1/ 2
COVE POINT MD    0442   32      10/  8/ 14 1034.5F
SOLOMONS ISLAND  0442   31 47  340/  7/  8   N/A
BISHOPS HEAD MD  0442   29 37  330/  4/  4 1034.3R
PINEY POINT MD   0448           50/  2/  3   N/A
POTOMAC MD       0500   32 47  330/  8/ 12 1033.4    1/ 3
CAMBRIDGE MD     0442   33 42  320/  7/  8 1033.2F
LEWISETTA VA     0442   33 42  360/  5/  8 1034.2R
RAPPAHANNOCK LGT 0448           20/ 10/ 12 1034.4F
STINGRAY PT      0450   35      10/ 12/ 14 1034.5F
YORK RVR RNG VA  0442   36      10/ 11/ 13 1033.5S
YORKTOWN VA      0442   34 47   10/ 10/ 11 1033.9R
JAMESTOWN VA     0500   31 47   30/  6/  8   N/A     0
DOMINION TERM VA 0442   35      20/  5/  6 1033.9F
KIPTOPEKE VA     0442      48   70/  5/  7   N/A
CHES BAY BRIDGE  0442   38 49   20/  7/ 11 1033.5F
CAPE HENRY VA    0442   38     350/  6/  8   N/A
WILLOUBY STN VA  0442   37     350/  8/ 11 1034.5F
S CRANEY ISL VA  0442   38      40/  8/ 11 1033.5F
CAPE HENRY BUOY  0442      52                N/A     2/ 6
1ST LANDING BUOY 0500   39 49              1033.8    1/ 3
CAPE CHARLES BUO 0456      51                N/A     1/ 6
OFFSHORE WE BUOY 0451      54                N/A     2/ 3
64NM E OF VA BCH 0450   42 58  330/  8/ 14 1033.2F   2/ 5   2/ 5
DUCK PIER NC     0442   38 51  310/  5/  6 1033.3F
44100 DUCK FRF   0435      54                N/A     2/ 6
OREGON INLET NC  0442   35 46  330/  5/  7 1033.5F
HATTERAS NC      0442   40 51  360/ 13/ 16 1033.0F
DIAMOND SHLS NC  0450   44 77  360/ 12/ 17 1033.5R   4/ 8   3/ 8
CAPE LOOKOUT NC  0500   39     360/  9/ 11 1033.0F
$$




USA.gov is the U.S. government's official web portal to all federal, state and local government web resources and services.